Time,TemperatureF,DewpointF,PressureIn,WindDirection,WindDirectionDegrees,WindSpeedMPH,WindSpeedGustMPH,Humidity,HourlyPrecipIn,Conditions,Clouds,dailyrainin,SolarRadiationWatts/m^2,SoftwareType,DateUTC
2013-07-16 00:01:00,78.8,73.5,30.13,SSW,212,0.0,0.0,84,0.00,,,0.00,0,LWC V2.00 B2112,2013-07-16 04:01:00,
2013-07-16 00:06:00,78.8,73.5,30.13,SSW,212,0.0,0.0,84,0.00,,,0.00,0,LWC V2.00 B2112,2013-07-16 04:06:00,
2013-07-16 00:11:00,78.7,73.4,30.13,SSW,212,0.0,0.0,84,0.00,,,0.00,0,LWC V2.00 B2112,2013-07-16 04:11:00,
2013-07-16 00:16:00,78.7,73.8,30.13,SSW,212,0.0,0.0,85,0.00,,,0.00,0,LWC V2.00 B2112,2013-07-16 04:16:00,
2013-07-16 00:21:00,78.7,73.4,30.13,SSW,212,0.0,0.0,84,0.00,,,0.00,0,LWC V2.00 B2112,2013-07-16 04:21:00,
2013-07-16 00:26:00,78.8,73.5,30.13,SSW,212,0.0,0.0,84,0.00,,,0.00,0,LWC V2.00 B2112,2013-07-16 04:26:00,
2013-07-16 00:31:00,78.9,73.6,30.13,SSW,212,0.0,0.0,84,0.00,,,0.00,0,LWC V2.00 B2112,2013-07-16 04:31:00,
2013-07-16 00:36:00,78.9,73.3,30.13,SSW,212,0.0,0.0,83,0.00,,,0.00,0,LWC V2.00 B2112,2013-07-16 04:36:00,
2013-07-16 00:41:00,79.0,73.0,30.13,SSW,212,0.0,0.0,82,0.00,,,0.00,0,LWC V2.00 B2112,2013-07-16 04:41:00,
2013-07-16 00:45:00,79.2,72.8,30.13,SSW,212,0.0,0.0,81,0.00,,,0.00,0,LWC V2.00 B2112,2013-07-16 04:45:00,
2013-07-16 00:50:00,79.4,73.0,30.13,SSW,212,0.0,0.0,81,0.00,,,0.00,0,LWC V2.00 B2112,2013-07-16 04:50:00,
2013-07-16 00:55:00,79.6,73.2,30.13,SSW,212,0.0,0.0,81,0.00,,,0.00,0,LWC V2.00 B2112,2013-07-16 04:55:00,
2013-07-16 01:00:00,79.6,73.6,30.13,SSW,212,0.0,0.0,82,0.00,,,0.00,0,LWC V2.00 B2112,2013-07-16 05:00:00,
2013-07-16 01:05:00,79.4,73.8,30.13,SSW,212,0.0,0.0,83,0.00,,,0.00,0,LWC V2.00 B2112,2013-07-16 05:05:00,
2013-07-16 01:10:00,79.2,73.2,30.13,SSW,212,0.0,0.0,82,0.00,,,0.00,0,LWC V2.00 B2112,2013-07-16 05:10:00,
2013-07-16 01:15:00,79.0,73.0,30.13,SSW,212,0.0,0.0,82,0.00,,,0.00,0,LWC V2.00 B2112,2013-07-16 05:15:00,
2013-07-16 01:20:00,78.8,73.2,30.13,SSW,212,0.0,0.0,83,0.00,,,0.00,0,LWC V2.00 B2112,2013-07-16 05:20:00,
2013-07-16 01:25:00,78.6,73.0,30.13,SSW,212,0.0,0.0,83,0.00,,,0.00,0,LWC V2.00 B2112,2013-07-16 05:25:00,
2013-07-16 01:30:00,78.5,72.9,30.13,SSW,212,0.0,0.0,83,0.00,,,0.00,0,LWC V2.00 B2112,2013-07-16 05:30:00,
2013-07-16 01:35:00,78.3,73.1,30.13,SSW,212,0.0,0.0,84,0.00,,,0.00,0,LWC V2.00 B2112,2013-07-16 05:35:00,
2013-07-16 01:40:00,78.1,72.9,30.13,SSW,212,0.0,0.0,84,0.00,,,0.00,0,LWC V2.00 B2112,2013-07-16 05:40:00,
2013-07-16 01:45:00,77.9,73.0,30.13,SSW,212,0.0,0.0,85,0.00,,,0.00,0,LWC V2.00 B2112,2013-07-16 05:45:00,
2013-07-16 01:50:00,77.6,72.7,30.13,SSW,212,0.0,0.0,85,0.00,,,0.00,0,LWC V2.00 B2112,2013-07-16 05:50:00,
2013-07-16 01:55:00,77.4,72.5,30.13,SSW,212,0.0,0.0,85,0.00,,,0.00,0,LWC V2.00 B2112,2013-07-16 05:55:00,
2013-07-16 02:00:00,77.2,72.3,30.13,SSW,212,0.0,0.0,85,0.00,,,0.00,0,LWC V2.00 B2112,2013-07-16 06:00:00,
2013-07-16 02:05:00,77.0,72.1,30.13,SSW,212,0.0,0.0,85,0.00,,,0.00,0,LWC V2.00 B2112,2013-07-16 06:05:00,
2013-07-16 02:10:00,77.1,72.2,30.13,SSW,212,0.0,0.0,85,0.00,,,0.00,0,LWC V2.00 B2112,2013-07-16 06:10:00,
2013-07-16 02:15:00,77.2,72.0,30.13,SSW,212,0.0,0.0,84,0.00,,,0.00,0,LWC V2.00 B2112,2013-07-16 06:15:00,
2013-07-16 02:20:00,77.3,72.8,30.13,SSW,212,0.0,0.0,86,0.00,,,0.00,0,LWC V2.00 B2112,2013-07-16 06:20:00,
2013-07-16 02:25:00,77.3,72.4,30.13,SSW,212,0.0,0.0,85,0.00,,,0.00,0,LWC V2.00 B2112,2013-07-16 06:25:00,
2013-07-16 02:30:00,77.2,72.3,30.13,SSW,212,0.0,0.0,85,0.00,,,0.00,0,LWC V2.00 B2112,2013-07-16 06:30:00,
2013-07-16 02:35:00,77.1,72.2,30.12,SSW,212,0.0,0.0,85,0.00,,,0.00,0,LWC V2.00 B2112,2013-07-16 06:35:00,
2013-07-16 02:40:00,76.9,72.0,30.12,SSW,212,0.0,0.0,85,0.00,,,0.00,0,LWC V2.00 B2112,2013-07-16 06:40:00,
2013-07-16 02:45:00,76.9,72.0,30.12,SSW,212,0.0,0.0,85,0.00,,,0.00,0,LWC V2.00 B2112,2013-07-16 06:45:00,
2013-07-16 02:50:00,76.8,72.3,30.12,SSW,212,0.0,0.0,86,0.00,,,0.00,0,LWC V2.00 B2112,2013-07-16 06:50:00,
2013-07-16 02:55:00,76.7,72.2,30.12,SSW,212,0.0,0.0,86,0.00,,,0.00,0,LWC V2.00 B2112,2013-07-16 06:55:00,
2013-07-16 03:00:00,76.6,71.7,30.12,SSW,212,0.0,0.0,85,0.00,,,0.00,0,LWC V2.00 B2112,2013-07-16 07:00:00,
2013-07-16 03:05:00,76.6,71.7,30.12,SSW,212,0.0,0.0,85,0.00,,,0.00,0,LWC V2.00 B2112,2013-07-16 07:05:00,
2013-07-16 03:10:00,76.6,71.4,30.12,SSW,212,0.0,0.0,84,0.00,,,0.00,0,LWC V2.00 B2112,2013-07-16 07:10:00,
2013-07-16 03:15:00,76.7,71.1,30.12,SSW,212,0.0,1.0,83,0.00,,,0.00,0,LWC V2.00 B2112,2013-07-16 07:15:00,
2013-07-16 03:20:00,76.9,71.0,30.12,SSW,212,0.0,0.0,82,0.00,,,0.00,0,LWC V2.00 B2112,2013-07-16 07:20:00,
2013-07-16 03:25:00,77.1,71.2,30.12,SSW,212,0.0,0.0,82,0.00,,,0.00,0,LWC V2.00 B2112,2013-07-16 07:25:00,
2013-07-16 03:30:00,77.2,71.3,30.12,SSW,212,0.0,0.0,82,0.00,,,0.00,0,LWC V2.00 B2112,2013-07-16 07:30:00,
2013-07-16 03:35:00,77.2,71.6,30.12,SSW,212,0.0,0.0,83,0.00,,,0.00,0,LWC V2.00 B2112,2013-07-16 07:35:00,
2013-07-16 03:40:00,77.2,71.3,30.12,SSW,212,0.0,0.0,82,0.00,,,0.00,0,LWC V2.00 B2112,2013-07-16 07:40:00,
2013-07-16 03:45:00,77.2,70.9,30.12,SSW,212,0.0,0.0,81,0.00,,,0.00,0,LWC V2.00 B2112,2013-07-16 07:45:00,
2013-07-16 03:50:00,77.3,71.0,30.12,SSW,212,0.0,0.0,81,0.00,,,0.00,0,LWC V2.00 B2112,2013-07-16 07:50:00,
2013-07-16 03:55:00,77.3,71.0,30.12,SSW,212,0.0,0.0,81,0.00,,,0.00,0,LWC V2.00 B2112,2013-07-16 07:55:00,
2013-07-16 04:00:00,77.2,70.9,30.12,SSW,212,0.0,0.0,81,0.00,,,0.00,0,LWC V2.00 B2112,2013-07-16 08:00:00,
2013-07-16 04:05:00,77.1,71.2,30.12,SSW,212,0.0,0.0,82,0.00,,,0.00,0,LWC V2.00 B2112,2013-07-16 08:05:00,
2013-07-16 04:10:00,76.9,71.0,30.12,SSW,212,0.0,0.0,82,0.00,,,0.00,0,LWC V2.00 B2112,2013-07-16 08:10:00,
2013-07-16 04:15:00,76.7,71.1,30.13,SSW,212,0.0,0.0,83,0.00,,,0.00,0,LWC V2.00 B2112,2013-07-16 08:15:00,
2013-07-16 04:20:00,76.6,71.0,30.13,SSW,212,0.0,0.0,83,0.00,,,0.00,0,LWC V2.00 B2112,2013-07-16 08:20:00,
2013-07-16 04:25:00,76.3,71.1,30.13,SSW,212,0.0,0.0,84,0.00,,,0.00,0,LWC V2.00 B2112,2013-07-16 08:25:00,
2013-07-16 04:30:00,76.0,70.8,30.13,SSW,212,0.0,0.0,84,0.00,,,0.00,0,LWC V2.00 B2112,2013-07-16 08:30:00,
2013-07-16 04:35:00,75.8,70.6,30.13,SSW,212,0.0,0.0,84,0.00,,,0.00,0,LWC V2.00 B2112,2013-07-16 08:35:00,
2013-07-16 04:40:00,75.5,70.7,30.13,SSW,212,0.0,0.0,85,0.00,,,0.00,0,LWC V2.00 B2112,2013-07-16 08:40:00,
2013-07-16 04:45:00,75.2,70.7,30.13,SSW,212,0.0,0.0,86,0.00,,,0.00,0,LWC V2.00 B2112,2013-07-16 08:45:00,
2013-07-16 04:50:00,74.9,70.4,30.13,SSW,212,0.0,0.0,86,0.00,,,0.00,0,LWC V2.00 B2112,2013-07-16 08:50:00,
2013-07-16 04:55:00,74.9,70.1,30.13,SSW,212,0.0,0.0,85,0.00,,,0.00,0,LWC V2.00 B2112,2013-07-16 08:55:00,
2013-07-16 05:00:00,75.0,70.2,30.13,SSW,212,0.0,0.0,85,0.00,,,0.00,0,LWC V2.00 B2112,2013-07-16 09:00:00,
2013-07-16 05:05:00,75.1,70.3,30.13,SSW,212,0.0,0.0,85,0.00,,,0.00,0,LWC V2.00 B2112,2013-07-16 09:05:00,
2013-07-16 05:10:00,75.1,70.3,30.13,SSW,212,0.0,0.0,85,0.00,,,0.00,0,LWC V2.00 B2112,2013-07-16 09:10:00,
2013-07-16 05:15:00,75.0,70.2,30.13,SSW,212,0.0,0.0,85,0.00,,,0.00,0,LWC V2.00 B2112,2013-07-16 09:15:00,
2013-07-16 05:20:00,75.1,70.3,30.14,SSW,212,0.0,0.0,85,0.00,,,0.00,0,LWC V2.00 B2112,2013-07-16 09:20:00,
2013-07-16 05:25:00,75.0,70.2,30.13,SSW,212,0.0,0.0,85,0.00,,,0.00,0,LWC V2.00 B2112,2013-07-16 09:25:00,
2013-07-16 05:27:00,75.0,70.5,30.13,SSW,212,0.0,0.0,86,0.00,,,0.00,0,LWC V2.00 B2112,2013-07-16 09:27:00,
2013-07-16 05:32:00,74.9,70.4,30.14,SSW,212,0.0,0.0,86,0.00,,,0.00,0,LWC V2.00 B2112,2013-07-16 09:32:00,
2013-07-16 05:37:00,74.8,70.3,30.14,SSW,212,0.0,0.0,86,0.00,,,0.00,0,LWC V2.00 B2112,2013-07-16 09:37:00,
2013-07-16 05:42:00,74.6,70.1,30.14,SSW,212,0.0,0.0,86,0.00,,,0.00,0,LWC V2.00 B2112,2013-07-16 09:42:00,
2013-07-16 05:47:00,74.4,69.9,30.14,SSW,212,0.0,0.0,86,0.00,,,0.00,0,LWC V2.00 B2112,2013-07-16 09:47:00,
2013-07-16 05:52:00,74.1,70.0,30.14,SSW,212,0.0,0.0,87,0.00,,,0.00,0,LWC V2.00 B2112,2013-07-16 09:52:00,
2013-07-16 05:57:00,73.9,69.8,30.15,SSW,212,0.0,0.0,87,0.00,,,0.00,0,LWC V2.00 B2112,2013-07-16 09:57:00,
2013-07-16 06:02:00,73.8,70.0,30.15,SSW,212,0.0,0.0,88,0.00,,,0.00,0,LWC V2.00 B2112,2013-07-16 10:02:00,
2013-07-16 06:07:00,73.7,69.9,30.15,SSW,212,0.0,0.0,88,0.00,,,0.00,0,LWC V2.00 B2112,2013-07-16 10:07:00,
2013-07-16 06:12:00,73.6,69.8,30.15,SSW,212,0.0,0.0,88,0.00,,,0.00,0,LWC V2.00 B2112,2013-07-16 10:12:00,
2013-07-16 06:17:00,73.5,69.7,30.15,SSW,212,0.0,0.0,88,0.00,,,0.00,0,LWC V2.00 B2112,2013-07-16 10:17:00,
2013-07-16 06:22:00,73.4,70.0,30.15,SSW,212,0.0,0.0,89,0.00,,,0.00,0,LWC V2.00 B2112,2013-07-16 10:22:00,
2013-07-16 06:27:00,73.3,69.9,30.15,SSW,212,0.0,0.0,89,0.00,,,0.00,21,LWC V2.00 B2112,2013-07-16 10:27:00,
2013-07-16 06:32:00,73.3,69.9,30.16,SSW,212,0.0,0.0,89,0.00,,,0.00,5,LWC V2.00 B2112,2013-07-16 10:32:00,
2013-07-16 06:37:00,73.2,69.8,30.16,SSW,212,0.0,0.0,89,0.00,,,0.00,5,LWC V2.00 B2112,2013-07-16 10:37:00,
2013-07-16 06:42:00,73.2,69.8,30.16,SSW,212,0.0,0.0,89,0.00,,,0.00,5,LWC V2.00 B2112,2013-07-16 10:42:00,
2013-07-16 06:47:00,73.2,69.8,30.16,SSW,212,0.0,0.0,89,0.00,,,0.00,5,LWC V2.00 B2112,2013-07-16 10:47:00,
2013-07-16 06:52:00,73.2,69.8,30.16,SSW,212,0.0,0.0,89,0.00,,,0.00,5,LWC V2.00 B2112,2013-07-16 10:52:00,
2013-07-16 06:57:00,73.3,70.2,30.16,SSW,212,0.0,0.0,90,0.00,,,0.00,7,LWC V2.00 B2112,2013-07-16 10:57:00,
2013-07-16 07:02:00,73.3,70.2,30.16,SSW,212,0.0,0.0,90,0.00,,,0.00,7,LWC V2.00 B2112,2013-07-16 11:02:00,
2013-07-16 07:07:00,73.4,70.3,30.16,SSW,212,0.0,0.0,90,0.00,,,0.00,7,LWC V2.00 B2112,2013-07-16 11:07:00,
2013-07-16 07:12:00,73.5,70.4,30.16,SSW,212,0.0,0.0,90,0.00,,,0.00,7,LWC V2.00 B2112,2013-07-16 11:12:00,
2013-07-16 07:17:00,73.7,69.9,30.16,SSW,212,0.0,0.0,88,0.00,,,0.00,9,LWC V2.00 B2112,2013-07-16 11:17:00,
2013-07-16 07:22:00,73.9,69.4,30.16,SSW,212,0.0,1.0,86,0.00,,,0.00,9,LWC V2.00 B2112,2013-07-16 11:22:00,
2013-07-16 07:27:00,74.5,69.3,30.16,SSW,212,0.0,0.0,84,0.00,,,0.00,11,LWC V2.00 B2112,2013-07-16 11:27:00,
2013-07-16 07:32:00,75.2,69.3,30.16,SSW,212,0.0,1.0,82,0.00,,,0.00,11,LWC V2.00 B2112,2013-07-16 11:32:00,
2013-07-16 07:37:00,75.8,69.5,30.17,SSW,212,0.0,1.0,81,0.00,,,0.00,11,LWC V2.00 B2112,2013-07-16 11:37:00,
2013-07-16 07:42:00,76.4,69.8,30.17,SSW,212,0.0,0.0,80,0.00,,,0.00,12,LWC V2.00 B2112,2013-07-16 11:42:00,
2013-07-16 07:47:00,76.9,69.5,30.17,SSW,205,1.0,1.0,78,0.00,,,0.00,12,LWC V2.00 B2112,2013-07-16 11:47:00,
2013-07-16 07:52:00,77.3,69.5,30.17,SSW,205,0.0,0.0,77,0.00,,,0.00,21,LWC V2.00 B2112,2013-07-16 11:52:00,
2013-07-16 07:57:00,77.7,69.5,30.17,SSW,205,0.0,0.0,76,0.00,,,0.00,18,LWC V2.00 B2112,2013-07-16 11:57:00,
2013-07-16 08:02:00,78.1,69.9,30.17,SSW,205,0.0,0.0,76,0.00,,,0.00,16,LWC V2.00 B2112,2013-07-16 12:02:00,
2013-07-16 08:07:00,78.3,69.3,30.17,SSW,205,0.0,1.0,74,0.00,,,0.00,26,LWC V2.00 B2112,2013-07-16 12:07:00,
2013-07-16 08:12:00,78.6,70.0,30.17,SW,227,2.0,2.0,75,0.00,,,0.00,18,LWC V2.00 B2112,2013-07-16 12:12:00,
2013-07-16 08:17:00,78.9,69.5,30.17,SW,227,1.0,1.0,73,0.00,,,0.00,18,LWC V2.00 B2112,2013-07-16 12:17:00,
2013-07-16 08:22:00,79.2,69.4,30.17,West,279,0.0,1.0,72,0.00,,,0.00,18,LWC V2.00 B2112,2013-07-16 12:22:00,
2013-07-16 08:27:00,79.5,69.7,30.17,West,279,1.0,1.0,72,0.00,,,0.00,26,LWC V2.00 B2112,2013-07-16 12:27:00,
2013-07-16 08:32:00,79.8,69.5,30.17,WNW,293,1.0,2.0,71,0.00,,,0.00,19,LWC V2.00 B2112,2013-07-16 12:32:00,
2013-07-16 08:37:00,80.1,69.4,30.17,SSW,194,1.0,2.0,70,0.00,,,0.00,21,LWC V2.00 B2112,2013-07-16 12:37:00,
2013-07-16 08:42:00,80.5,69.4,30.17,South,185,0.0,4.0,69,0.00,,,0.00,21,LWC V2.00 B2112,2013-07-16 12:42:00,
2013-07-16 08:47:00,80.9,69.3,30.17,South,175,2.0,2.0,68,0.00,,,0.00,23,LWC V2.00 B2112,2013-07-16 12:47:00,
2013-07-16 08:52:00,81.2,70.0,30.17,South,175,0.0,1.0,69,0.00,,,0.00,25,LWC V2.00 B2112,2013-07-16 12:52:00,
2013-07-16 08:57:00,81.5,69.9,30.17,South,181,0.0,0.0,68,0.00,,,0.00,26,LWC V2.00 B2112,2013-07-16 12:57:00,
2013-07-16 09:02:00,81.8,70.6,30.17,South,181,0.0,2.0,69,0.00,,,0.00,28,LWC V2.00 B2112,2013-07-16 13:02:00,
2013-07-16 09:07:00,82.1,69.6,30.17,South,187,0.0,2.0,66,0.00,,,0.00,28,LWC V2.00 B2112,2013-07-16 13:07:00,
2013-07-16 09:12:00,82.4,69.9,30.17,South,187,0.0,3.0,66,0.00,,,0.00,30,LWC V2.00 B2112,2013-07-16 13:12:00,
2013-07-16 09:17:00,82.7,69.7,30.17,South,189,1.0,4.0,65,0.00,,,0.00,30,LWC V2.00 B2112,2013-07-16 13:17:00,
2013-07-16 09:22:00,83.0,70.4,30.17,West,277,0.0,1.0,66,0.00,,,0.00,32,LWC V2.00 B2112,2013-07-16 13:22:00,
2013-07-16 09:27:00,83.2,70.6,30.17,West,271,0.0,2.0,66,0.00,,,0.00,32,LWC V2.00 B2112,2013-07-16 13:27:00,
2013-07-16 09:32:00,83.6,70.1,30.17,SSW,192,2.0,3.0,64,0.00,,,0.00,33,LWC V2.00 B2112,2013-07-16 13:32:00,
2013-07-16 09:37:00,83.9,70.4,30.17,South,184,0.0,1.0,64,0.00,,,0.00,33,LWC V2.00 B2112,2013-07-16 13:37:00,
2013-07-16 09:42:00,84.3,70.8,30.17,South,178,1.0,3.0,64,0.00,,,0.00,35,LWC V2.00 B2112,2013-07-16 13:42:00,
2013-07-16 09:47:00,84.5,71.0,30.17,West,277,1.0,1.0,64,0.00,,,0.00,35,LWC V2.00 B2112,2013-07-16 13:47:00,
2013-07-16 09:52:00,84.8,70.3,30.17,West,273,1.0,3.0,62,0.00,,,0.00,35,LWC V2.00 B2112,2013-07-16 13:52:00,
2013-07-16 09:57:00,85.0,70.5,30.17,West,269,1.0,1.0,62,0.00,,,0.00,35,LWC V2.00 B2112,2013-07-16 13:57:00,
2013-07-16 10:02:00,85.3,70.8,30.17,South,175,1.0,1.0,62,0.00,,,0.00,35,LWC V2.00 B2112,2013-07-16 14:02:00,
2013-07-16 10:07:00,85.5,71.0,30.17,WSW,248,0.0,2.0,62,0.00,,,0.00,37,LWC V2.00 B2112,2013-07-16 14:07:00,
2013-07-16 10:12:00,85.7,70.2,30.17,SW,219,0.0,1.0,60,0.00,,,0.00,37,LWC V2.00 B2112,2013-07-16 14:12:00,
2013-07-16 10:17:00,86.0,70.5,30.17,SW,217,0.0,2.0,60,0.00,,,0.00,37,LWC V2.00 B2112,2013-07-16 14:17:00,
2013-07-16 10:22:00,86.2,70.2,30.17,WSW,247,1.0,1.0,59,0.00,,,0.00,37,LWC V2.00 B2112,2013-07-16 14:22:00,
2013-07-16 10:27:00,86.4,70.8,30.17,WSW,240,0.0,2.0,60,0.00,,,0.00,37,LWC V2.00 B2112,2013-07-16 14:27:00,
2013-07-16 10:32:00,86.6,70.5,30.17,SSE,166,2.0,3.0,59,0.00,,,0.00,37,LWC V2.00 B2112,2013-07-16 14:32:00,
2013-07-16 10:37:00,86.8,70.2,30.17,West,265,0.0,1.0,58,0.00,,,0.00,37,LWC V2.00 B2112,2013-07-16 14:37:00,
2013-07-16 10:42:00,86.9,71.3,30.16,WNW,294,0.0,1.0,60,0.00,,,0.00,37,LWC V2.00 B2112,2013-07-16 14:42:00,
2013-07-16 10:47:00,87.0,71.9,30.16,WNW,294,0.0,1.0,61,0.00,,,0.00,39,LWC V2.00 B2112,2013-07-16 14:47:00,
2013-07-16 10:52:00,87.2,70.6,30.16,South,169,1.0,1.0,58,0.00,,,0.00,39,LWC V2.00 B2112,2013-07-16 14:52:00,
2013-07-16 10:57:00,87.4,71.3,30.16,South,187,1.0,1.0,59,0.00,,,0.00,39,LWC V2.00 B2112,2013-07-16 14:57:00,
2013-07-16 11:02:00,87.6,69.9,30.16,WNW,299,2.0,2.0,56,0.00,,,0.00,39,LWC V2.00 B2112,2013-07-16 15:02:00,
2013-07-16 11:07:00,87.7,70.5,30.16,WNW,299,1.0,2.0,57,0.00,,,0.00,39,LWC V2.00 B2112,2013-07-16 15:07:00,
2013-07-16 11:12:00,87.7,70.0,30.15,WNW,299,0.0,0.0,56,0.00,,,0.00,39,LWC V2.00 B2112,2013-07-16 15:12:00,
2013-07-16 11:17:00,87.8,70.1,30.15,WNW,297,1.0,3.0,56,0.00,,,0.00,40,LWC V2.00 B2112,2013-07-16 15:17:00,
2013-07-16 11:22:00,88.1,69.9,30.15,WNW,294,2.0,2.0,55,0.00,,,0.00,40,LWC V2.00 B2112,2013-07-16 15:22:00,
2013-07-16 11:27:00,88.2,70.0,30.15,WNW,294,1.0,2.0,55,0.00,,,0.00,40,LWC V2.00 B2112,2013-07-16 15:27:00,
2013-07-16 11:32:00,88.3,69.5,30.15,SSW,198,1.0,2.0,54,0.00,,,0.00,47,LWC V2.00 B2112,2013-07-16 15:32:00,
2013-07-16 11:37:00,88.6,69.8,30.15,SSW,192,0.0,1.0,54,0.00,,,0.00,44,LWC V2.00 B2112,2013-07-16 15:37:00,
2013-07-16 11:42:00,88.7,69.3,30.15,South,190,0.0,3.0,53,0.00,,,0.00,44,LWC V2.00 B2112,2013-07-16 15:42:00,
2013-07-16 11:47:00,88.9,71.1,30.15,WNW,285,3.0,3.0,56,0.00,,,0.00,44,LWC V2.00 B2112,2013-07-16 15:47:00,
2013-07-16 11:52:00,89.0,69.6,30.15,WNW,284,1.0,2.0,53,0.00,,,0.00,46,LWC V2.00 B2112,2013-07-16 15:52:00,
2013-07-16 11:57:00,89.1,70.8,30.15,WNW,284,1.0,1.0,55,0.00,,,0.00,47,LWC V2.00 B2112,2013-07-16 15:57:00,
2013-07-16 12:02:00,89.2,69.2,30.15,WNW,286,1.0,2.0,52,0.00,,,0.00,56,LWC V2.00 B2112,2013-07-16 16:02:00,
2013-07-16 12:07:00,89.2,70.9,30.15,West,273,0.0,1.0,55,0.00,,,0.00,51,LWC V2.00 B2112,2013-07-16 16:07:00,
2013-07-16 12:12:00,89.4,70.0,30.15,WNW,282,0.0,2.0,53,0.00,,,0.00,54,LWC V2.00 B2112,2013-07-16 16:12:00,
2013-07-16 12:17:00,89.6,70.7,30.15,WNW,282,2.0,2.0,54,0.00,,,0.00,69,LWC V2.00 B2112,2013-07-16 16:17:00,
2013-07-16 12:22:00,90.0,68.8,30.15,SSW,193,0.0,2.0,50,0.00,,,0.00,58,LWC V2.00 B2112,2013-07-16 16:22:00,
2013-07-16 12:27:00,90.3,68.5,30.15,SW,219,0.0,3.0,49,0.00,,,0.00,54,LWC V2.00 B2112,2013-07-16 16:27:00,
2013-07-16 12:32:00,90.6,70.5,30.14,West,275,0.0,0.0,52,0.00,,,0.00,58,LWC V2.00 B2112,2013-07-16 16:32:00,
2013-07-16 12:37:00,90.7,69.5,30.14,West,275,0.0,2.0,50,0.00,,,0.00,97,LWC V2.00 B2112,2013-07-16 16:37:00,
2013-07-16 12:42:00,90.9,69.1,30.14,WNW,294,0.0,1.0,49,0.00,,,0.00,107,LWC V2.00 B2112,2013-07-16 16:42:00,
2013-07-16 12:47:00,91.2,68.1,30.14,SSW,195,3.0,4.0,47,0.00,,,0.00,114,LWC V2.00 B2112,2013-07-16 16:47:00,
2013-07-16 12:52:00,91.5,70.2,30.14,WSW,255,0.0,3.0,50,0.00,,,0.00,118,LWC V2.00 B2112,2013-07-16 16:52:00,
2013-07-16 12:57:00,91.8,69.3,30.14,SW,226,0.0,1.0,48,0.00,,,0.00,258,LWC V2.00 B2112,2013-07-16 16:57:00,
2013-07-16 13:02:00,92.1,67.7,30.14,South,180,1.0,2.0,45,0.00,,,0.00,547,LWC V2.00 B2112,2013-07-16 17:02:00,
2013-07-16 13:07:00,92.4,68.6,30.14,SSW,202,0.0,2.0,46,0.00,,,0.00,548,LWC V2.00 B2112,2013-07-16 17:07:00,
2013-07-16 13:12:00,92.6,69.4,30.14,NW,307,0.0,1.0,47,0.00,,,0.00,550,LWC V2.00 B2112,2013-07-16 17:12:00,
2013-07-16 13:17:00,92.7,68.2,30.14,South,178,2.0,3.0,45,0.00,,,0.00,543,LWC V2.00 B2112,2013-07-16 17:17:00,
2013-07-16 13:22:00,92.9,69.0,30.14,South,178,1.0,2.0,46,0.00,,,0.00,527,LWC V2.00 B2112,2013-07-16 17:22:00,
2013-07-16 13:27:00,93.1,67.9,30.13,WNW,291,2.0,3.0,44,0.00,,,0.00,555,LWC V2.00 B2112,2013-07-16 17:27:00,
2013-07-16 13:32:00,93.1,68.6,30.13,WNW,293,0.0,2.0,45,0.00,,,0.00,563,LWC V2.00 B2112,2013-07-16 17:32:00,
2013-07-16 13:37:00,93.3,68.1,30.14,WNW,292,1.0,2.0,44,0.00,,,0.00,538,LWC V2.00 B2112,2013-07-16 17:37:00,
2013-07-16 13:42:00,93.4,67.5,30.13,West,267,0.0,1.0,43,0.00,,,0.00,519,LWC V2.00 B2112,2013-07-16 17:42:00,
2013-07-16 13:47:00,93.5,68.9,30.13,South,171,0.0,1.0,45,0.00,,,0.00,538,LWC V2.00 B2112,2013-07-16 17:47:00,
2013-07-16 13:52:00,93.5,68.9,30.13,SSW,206,1.0,2.0,45,0.00,,,0.00,237,LWC V2.00 B2112,2013-07-16 17:52:00,
2013-07-16 13:57:00,93.4,67.5,30.13,South,184,1.0,3.0,43,0.00,,,0.00,471,LWC V2.00 B2112,2013-07-16 17:57:00,
2013-07-16 14:02:00,93.4,69.5,30.13,WSW,248,2.0,2.0,46,0.00,,,0.00,485,LWC V2.00 B2112,2013-07-16 18:02:00,
2013-07-16 14:07:00,93.4,68.2,30.13,South,169,1.0,4.0,44,0.00,,,0.00,475,LWC V2.00 B2112,2013-07-16 18:07:00,
2013-07-16 14:12:00,93.5,69.6,30.13,West,273,0.0,1.0,46,0.00,,,0.00,471,LWC V2.00 B2112,2013-07-16 18:12:00,
2013-07-16 14:17:00,93.8,70.5,30.13,WNW,302,2.0,2.0,47,0.00,,,0.00,462,LWC V2.00 B2112,2013-07-16 18:17:00,
2013-07-16 14:22:00,94.0,68.7,30.13,WNW,284,0.0,3.0,44,0.00,,,0.00,58,LWC V2.00 B2112,2013-07-16 18:22:00,
2013-07-16 14:27:00,93.8,70.5,30.13,WNW,284,0.0,1.0,47,0.00,,,0.00,60,LWC V2.00 B2112,2013-07-16 18:27:00,
2013-07-16 14:32:00,93.8,68.5,30.13,SW,219,1.0,2.0,44,0.00,,,0.00,415,LWC V2.00 B2112,2013-07-16 18:32:00,
2013-07-16 14:37:00,93.8,67.9,30.13,WSW,242,1.0,2.0,43,0.00,,,0.00,241,LWC V2.00 B2112,2013-07-16 18:37:00,
2013-07-16 14:41:00,93.8,67.2,30.12,South,181,0.0,3.0,42,0.00,,,0.00,39,LWC V2.00 B2112,2013-07-16 18:41:00,
2013-07-16 14:46:00,93.6,69.0,30.12,SSW,192,0.0,1.0,45,0.00,,,0.00,49,LWC V2.00 B2112,2013-07-16 18:46:00,
2013-07-16 14:51:00,93.3,68.7,30.12,South,186,1.0,1.0,45,0.00,,,0.00,86,LWC V2.00 B2112,2013-07-16 18:51:00,
2013-07-16 14:56:00,93.1,68.6,30.12,WNW,291,0.0,3.0,45,0.00,,,0.00,86,LWC V2.00 B2112,2013-07-16 18:56:00,
2013-07-16 15:01:00,93.0,69.1,30.12,NW,319,0.0,3.0,46,0.00,,,0.00,90,LWC V2.00 B2112,2013-07-16 19:01:00,
2013-07-16 15:07:00,93.0,69.7,30.12,NW,319,2.0,2.0,47,0.00,,,0.00,46,LWC V2.00 B2112,2013-07-16 19:07:00,
2013-07-16 15:11:00,92.8,67.6,30.12,East,88,0.0,3.0,44,0.00,,,0.00,30,LWC V2.00 B2112,2013-07-16 19:11:00,
2013-07-16 15:16:00,92.5,68.0,30.12,SSE,159,1.0,2.0,45,0.00,,,0.00,25,LWC V2.00 B2112,2013-07-16 19:16:00,
2013-07-16 15:21:00,92.4,69.2,30.12,SE,138,1.0,2.0,47,0.00,,,0.00,72,LWC V2.00 B2112,2013-07-16 19:21:00,
2013-07-16 15:26:00,92.5,69.3,30.12,West,281,0.0,1.0,47,0.00,,,0.00,72,LWC V2.00 B2112,2013-07-16 19:26:00,
2013-07-16 15:31:00,92.6,69.4,30.12,West,273,1.0,2.0,47,0.00,,,0.00,70,LWC V2.00 B2112,2013-07-16 19:31:00,
2013-07-16 15:36:00,92.8,70.2,30.11,West,273,0.0,1.0,48,0.00,,,0.00,70,LWC V2.00 B2112,2013-07-16 19:36:00,
2013-07-16 15:41:00,92.8,69.6,30.12,SSW,205,1.0,1.0,47,0.00,,,0.00,69,LWC V2.00 B2112,2013-07-16 19:41:00,
2013-07-16 15:46:00,92.7,69.5,30.12,SSW,198,1.0,1.0,47,0.00,,,0.00,70,LWC V2.00 B2112,2013-07-16 19:46:00,
2013-07-16 15:51:00,92.5,70.5,30.12,West,275,0.0,2.0,49,0.00,,,0.00,49,LWC V2.00 B2112,2013-07-16 19:51:00,
2013-07-16 15:56:00,92.3,68.5,30.11,SW,223,0.0,2.0,46,0.00,,,0.00,63,LWC V2.00 B2112,2013-07-16 19:56:00,
2013-07-16 16:01:00,92.3,70.3,30.11,SW,229,0.0,1.0,49,0.00,,,0.00,19,LWC V2.00 B2112,2013-07-16 20:01:00,
2013-07-16 16:06:00,92.1,69.5,30.11,SW,220,1.0,2.0,48,0.00,,,0.00,35,LWC V2.00 B2112,2013-07-16 20:06:00,
2013-07-16 16:11:00,91.9,68.7,30.11,WSW,242,0.0,2.0,47,0.00,,,0.00,60,LWC V2.00 B2112,2013-07-16 20:11:00,
2013-07-16 16:16:00,91.8,69.9,30.11,WSW,242,0.0,1.0,49,0.00,,,0.00,54,LWC V2.00 B2112,2013-07-16 20:16:00,
2013-07-16 16:21:00,91.9,69.4,30.11,SW,226,0.0,1.0,48,0.00,,,0.00,54,LWC V2.00 B2112,2013-07-16 20:21:00,
2013-07-16 16:26:00,92.0,69.4,30.11,WNW,290,0.0,2.0,48,0.00,,,0.00,53,LWC V2.00 B2112,2013-07-16 20:26:00,
2013-07-16 16:31:00,92.0,68.8,30.11,WSW,252,1.0,2.0,47,0.00,,,0.00,49,LWC V2.00 B2112,2013-07-16 20:31:00,
2013-07-16 16:36:00,92.0,68.8,30.11,WSW,249,1.0,2.0,47,0.00,,,0.00,39,LWC V2.00 B2112,2013-07-16 20:36:00,
2013-07-16 16:41:00,92.1,69.5,30.11,West,261,0.0,1.0,48,0.00,,,0.00,49,LWC V2.00 B2112,2013-07-16 20:41:00,
2013-07-16 16:46:00,92.1,70.1,30.11,West,261,0.0,1.0,49,0.00,,,0.00,44,LWC V2.00 B2112,2013-07-16 20:46:00,
2013-07-16 16:51:00,91.9,69.4,30.11,South,177,0.0,1.0,48,0.00,,,0.00,19,LWC V2.00 B2112,2013-07-16 20:51:00,
2013-07-16 16:56:00,91.7,69.8,30.10,South,178,0.0,1.0,49,0.00,,,0.00,47,LWC V2.00 B2112,2013-07-16 20:56:00,
2013-07-16 17:01:00,91.7,69.8,30.10,South,178,1.0,2.0,49,0.00,,,0.00,47,LWC V2.00 B2112,2013-07-16 21:01:00,
2013-07-16 17:06:00,91.8,69.9,30.10,West,277,0.0,1.0,49,0.00,,,0.00,46,LWC V2.00 B2112,2013-07-16 21:06:00,
2013-07-16 17:11:00,91.9,68.7,30.10,South,187,0.0,3.0,47,0.00,,,0.00,16,LWC V2.00 B2112,2013-07-16 21:11:00,
2013-07-16 17:16:00,91.8,69.3,30.10,SSW,195,0.0,1.0,48,0.00,,,0.00,46,LWC V2.00 B2112,2013-07-16 21:16:00,
2013-07-16 17:21:00,91.8,71.0,30.10,SSW,195,0.0,1.0,51,0.00,,,0.00,18,LWC V2.00 B2112,2013-07-16 21:21:00,
2013-07-16 17:26:00,91.4,71.3,30.10,SSW,195,0.0,1.0,52,0.00,,,0.00,16,LWC V2.00 B2112,2013-07-16 21:26:00,
2013-07-16 17:31:00,91.1,70.4,30.10,SSW,195,0.0,0.0,51,0.00,,,0.00,39,LWC V2.00 B2112,2013-07-16 21:31:00,
2013-07-16 17:36:00,91.0,69.7,30.10,SSW,195,0.0,0.0,50,0.00,,,0.00,28,LWC V2.00 B2112,2013-07-16 21:36:00,
2013-07-16 17:41:00,91.0,70.3,30.10,SSW,194,1.0,2.0,51,0.00,,,0.00,18,LWC V2.00 B2112,2013-07-16 21:41:00,
2013-07-16 17:46:00,90.8,69.6,30.10,SSW,193,0.0,1.0,50,0.00,,,0.00,46,LWC V2.00 B2112,2013-07-16 21:46:00,
2013-07-16 17:51:00,90.6,69.9,30.10,SSW,193,0.0,0.0,51,0.00,,,0.00,42,LWC V2.00 B2112,2013-07-16 21:51:00,
2013-07-16 17:56:00,90.5,71.5,30.10,SSW,193,0.0,0.0,54,0.00,,,0.00,42,LWC V2.00 B2112,2013-07-16 21:56:00,
2013-07-16 18:01:00,90.4,69.8,30.10,SSW,193,0.0,1.0,51,0.00,,,0.00,37,LWC V2.00 B2112,2013-07-16 22:01:00,
2013-07-16 18:06:00,90.3,73.5,30.10,SSW,193,0.0,1.0,58,0.00,,,0.00,32,LWC V2.00 B2112,2013-07-16 22:06:00,
2013-07-16 18:11:00,90.0,71.6,30.09,SSW,193,0.0,0.0,55,0.00,,,0.00,26,LWC V2.00 B2112,2013-07-16 22:11:00,
2013-07-16 18:16:00,89.9,69.3,30.10,SSW,193,0.0,1.0,51,0.00,,,0.00,25,LWC V2.00 B2112,2013-07-16 22:16:00,
2013-07-16 18:21:00,89.9,71.0,30.09,SSW,193,0.0,0.0,54,0.00,,,0.00,25,LWC V2.00 B2112,2013-07-16 22:21:00,
2013-07-16 18:26:00,89.7,71.9,30.09,SSW,193,0.0,0.0,56,0.00,,,0.00,25,LWC V2.00 B2112,2013-07-16 22:26:00,
2013-07-16 18:31:00,89.7,69.7,30.10,SSW,193,0.0,1.0,52,0.00,,,0.00,28,LWC V2.00 B2112,2013-07-16 22:31:00,
2013-07-16 18:36:00,89.7,70.3,30.10,NW,318,0.0,1.0,53,0.00,,,0.00,26,LWC V2.00 B2112,2013-07-16 22:36:00,
2013-07-16 18:41:00,89.8,69.8,30.10,NW,318,0.0,1.0,52,0.00,,,0.00,19,LWC V2.00 B2112,2013-07-16 22:41:00,
2013-07-16 18:46:00,89.9,72.6,30.10,NW,318,0.0,1.0,57,0.00,,,0.00,19,LWC V2.00 B2112,2013-07-16 22:46:00,
2013-07-16 18:51:00,89.7,71.9,30.10,NW,318,0.0,0.0,56,0.00,,,0.00,18,LWC V2.00 B2112,2013-07-16 22:51:00,
2013-07-16 18:56:00,89.5,72.2,30.10,NW,318,0.0,0.0,57,0.00,,,0.00,16,LWC V2.00 B2112,2013-07-16 22:56:00,
2013-07-16 19:01:00,89.3,71.5,30.10,NW,318,0.0,1.0,56,0.00,,,0.00,16,LWC V2.00 B2112,2013-07-16 23:01:00,
2013-07-16 19:06:00,89.1,72.9,30.10,NW,318,0.0,0.0,59,0.00,,,0.00,16,LWC V2.00 B2112,2013-07-16 23:06:00,
2013-07-16 19:11:00,88.9,73.7,30.11,NW,318,0.0,1.0,61,0.00,,,0.00,14,LWC V2.00 B2112,2013-07-16 23:11:00,
2013-07-16 19:16:00,88.6,73.4,30.10,NW,318,0.0,0.0,61,0.00,,,0.00,12,LWC V2.00 B2112,2013-07-16 23:16:00,
2013-07-16 19:21:00,88.3,72.6,30.11,NW,318,0.0,0.0,60,0.00,,,0.00,12,LWC V2.00 B2112,2013-07-16 23:21:00,
2013-07-16 19:26:00,88.0,70.8,30.11,NW,318,0.0,1.0,57,0.00,,,0.00,11,LWC V2.00 B2112,2013-07-16 23:26:00,
2013-07-16 19:31:00,87.7,72.5,30.11,NW,318,0.0,0.0,61,0.00,,,0.00,11,LWC V2.00 B2112,2013-07-16 23:31:00,
2013-07-16 19:36:00,87.4,73.2,30.11,NW,318,0.0,0.0,63,0.00,,,0.00,9,LWC V2.00 B2112,2013-07-16 23:36:00,
2013-07-16 19:41:00,87.0,72.8,30.11,NW,318,0.0,0.0,63,0.00,,,0.00,9,LWC V2.00 B2112,2013-07-16 23:41:00,
2013-07-16 19:46:00,86.6,72.9,30.11,NW,318,0.0,0.0,64,0.00,,,0.00,7,LWC V2.00 B2112,2013-07-16 23:46:00,
2013-07-16 19:51:00,86.2,72.6,30.11,NW,318,0.0,0.0,64,0.00,,,0.00,5,LWC V2.00 B2112,2013-07-16 23:51:00,
2013-07-16 19:56:00,86.0,73.3,30.11,NW,318,0.0,0.0,66,0.00,,,0.00,0,LWC V2.00 B2112,2013-07-16 23:56:00,
2013-07-16 20:01:00,85.6,73.4,30.11,NW,318,0.0,0.0,67,0.00,,,0.00,0,LWC V2.00 B2112,2013-07-17 00:01:00,
2013-07-16 20:06:00,85.2,73.9,30.11,NW,318,0.0,0.0,69,0.00,,,0.00,0,LWC V2.00 B2112,2013-07-17 00:06:00,
2013-07-16 20:11:00,84.8,73.5,30.11,NW,318,0.0,0.0,69,0.00,,,0.00,0,LWC V2.00 B2112,2013-07-17 00:11:00,
2013-07-16 20:16:00,84.5,72.7,30.11,NW,318,0.0,0.0,68,0.00,,,0.00,0,LWC V2.00 B2112,2013-07-17 00:16:00,
2013-07-16 20:21:00,84.0,73.1,30.11,NW,318,0.0,0.0,70,0.00,,,0.00,0,LWC V2.00 B2112,2013-07-17 00:21:00,
2013-07-16 20:26:00,83.7,73.3,30.11,NW,318,0.0,0.0,71,0.00,,,0.00,0,LWC V2.00 B2112,2013-07-17 00:26:00,
2013-07-16 20:31:00,83.3,72.5,30.11,NW,318,0.0,0.0,70,0.00,,,0.00,0,LWC V2.00 B2112,2013-07-17 00:31:00,
2013-07-16 20:36:00,83.0,72.6,30.11,NW,318,0.0,0.0,71,0.00,,,0.00,0,LWC V2.00 B2112,2013-07-17 00:36:00,
2013-07-16 20:41:00,82.7,72.3,30.11,NW,318,0.0,0.0,71,0.00,,,0.00,0,LWC V2.00 B2112,2013-07-17 00:41:00,
2013-07-16 20:46:00,82.5,72.9,30.11,NW,318,0.0,0.0,73,0.00,,,0.00,0,LWC V2.00 B2112,2013-07-17 00:46:00,
2013-07-16 20:51:00,82.1,72.6,30.12,NW,318,0.0,0.0,73,0.00,,,0.00,0,LWC V2.00 B2112,2013-07-17 00:51:00,
2013-07-16 20:56:00,81.9,72.8,30.12,NW,318,0.0,0.0,74,0.00,,,0.00,0,LWC V2.00 B2112,2013-07-17 00:56:00,
2013-07-16 21:01:00,81.6,72.5,30.12,NW,318,0.0,0.0,74,0.00,,,0.00,0,LWC V2.00 B2112,2013-07-17 01:01:00,
2013-07-16 21:06:00,81.4,72.7,30.12,NW,318,0.0,0.0,75,0.00,,,0.00,0,LWC V2.00 B2112,2013-07-17 01:06:00,
2013-07-16 21:11:00,81.2,72.9,30.12,NW,318,0.0,0.0,76,0.00,,,0.00,0,LWC V2.00 B2112,2013-07-17 01:11:00,
2013-07-16 21:16:00,81.1,72.4,30.12,NW,318,0.0,0.0,75,0.00,,,0.00,0,LWC V2.00 B2112,2013-07-17 01:16:00,
2013-07-16 21:21:00,81.0,73.1,30.12,NW,318,0.0,0.0,77,0.00,,,0.00,0,LWC V2.00 B2112,2013-07-17 01:21:00,
2013-07-16 21:26:00,80.9,73.0,30.12,NW,318,0.0,0.0,77,0.00,,,0.00,0,LWC V2.00 B2112,2013-07-17 01:26:00,
2013-07-16 21:31:00,80.8,72.5,30.13,NW,318,0.0,0.0,76,0.00,,,0.00,0,LWC V2.00 B2112,2013-07-17 01:31:00,
2013-07-16 21:36:00,80.6,73.1,30.13,NW,318,0.0,0.0,78,0.00,,,0.00,0,LWC V2.00 B2112,2013-07-17 01:36:00,
2013-07-16 21:41:00,80.5,73.0,30.13,NW,318,0.0,0.0,78,0.00,,,0.00,0,LWC V2.00 B2112,2013-07-17 01:41:00,
2013-07-16 21:46:00,80.4,72.5,30.13,NW,318,0.0,0.0,77,0.00,,,0.00,0,LWC V2.00 B2112,2013-07-17 01:46:00,
2013-07-16 21:51:00,80.2,72.7,30.13,NW,318,0.0,0.0,78,0.00,,,0.00,0,LWC V2.00 B2112,2013-07-17 01:51:00,
2013-07-16 21:56:00,80.1,73.0,30.13,NW,318,0.0,0.0,79,0.00,,,0.00,0,LWC V2.00 B2112,2013-07-17 01:56:00,
2013-07-16 22:01:00,80.0,72.9,30.13,NW,318,0.0,0.0,79,0.00,,,0.00,0,LWC V2.00 B2112,2013-07-17 02:01:00,
2013-07-16 22:06:00,79.8,72.7,30.14,NW,318,0.0,0.0,79,0.00,,,0.00,0,LWC V2.00 B2112,2013-07-17 02:06:00,
2013-07-16 22:11:00,79.6,72.9,30.14,NW,318,0.0,0.0,80,0.00,,,0.00,0,LWC V2.00 B2112,2013-07-17 02:11:00,
2013-07-16 22:16:00,79.5,73.1,30.14,NW,318,0.0,0.0,81,0.00,,,0.00,0,LWC V2.00 B2112,2013-07-17 02:16:00,
2013-07-16 22:21:00,79.3,72.9,30.14,NW,318,0.0,0.0,81,0.00,,,0.00,0,LWC V2.00 B2112,2013-07-17 02:21:00,
2013-07-16 22:26:00,79.2,72.8,30.14,NW,318,0.0,0.0,81,0.00,,,0.00,0,LWC V2.00 B2112,2013-07-17 02:26:00,
2013-07-16 22:31:00,79.0,73.0,30.14,NW,318,0.0,0.0,82,0.00,,,0.00,0,LWC V2.00 B2112,2013-07-17 02:31:00,
2013-07-16 22:36:00,78.9,72.9,30.14,NW,318,0.0,0.0,82,0.00,,,0.00,0,LWC V2.00 B2112,2013-07-17 02:36:00,
2013-07-16 22:41:00,78.7,72.7,30.14,NW,318,0.0,0.0,82,0.00,,,0.00,0,LWC V2.00 B2112,2013-07-17 02:41:00,
2013-07-16 22:46:00,78.7,73.1,30.14,NW,318,0.0,0.0,83,0.00,,,0.00,0,LWC V2.00 B2112,2013-07-17 02:46:00,
2013-07-16 22:51:00,78.5,72.9,30.14,NW,318,0.0,0.0,83,0.00,,,0.00,0,LWC V2.00 B2112,2013-07-17 02:51:00,
2013-07-16 22:56:00,78.4,72.8,30.14,NW,318,0.0,0.0,83,0.00,,,0.00,0,LWC V2.00 B2112,2013-07-17 02:56:00,
2013-07-16 23:01:00,78.3,72.7,30.14,NW,318,0.0,0.0,83,0.00,,,0.00,0,LWC V2.00 B2112,2013-07-17 03:01:00,
2013-07-16 23:06:00,78.2,72.6,30.14,NW,318,0.0,0.0,83,0.00,,,0.00,0,LWC V2.00 B2112,2013-07-17 03:06:00,
2013-07-16 23:11:00,78.1,72.9,30.14,NW,318,0.0,0.0,84,0.00,,,0.00,0,LWC V2.00 B2112,2013-07-17 03:11:00,
2013-07-16 23:16:00,78.0,72.8,30.14,NW,318,0.0,0.0,84,0.00,,,0.00,0,LWC V2.00 B2112,2013-07-17 03:16:00,
2013-07-16 23:21:00,78.0,72.8,30.13,NW,318,0.0,0.0,84,0.00,,,0.00,0,LWC V2.00 B2112,2013-07-17 03:21:00,
2013-07-16 23:26:00,78.0,73.1,30.13,NW,318,0.0,0.0,85,0.00,,,0.00,0,LWC V2.00 B2112,2013-07-17 03:26:00,
2013-07-16 23:31:00,77.9,73.0,30.13,NW,318,0.0,0.0,85,0.00,,,0.00,0,LWC V2.00 B2112,2013-07-17 03:31:00,
2013-07-16 23:36:00,77.8,72.9,30.13,NW,318,0.0,0.0,85,0.00,,,0.00,0,LWC V2.00 B2112,2013-07-17 03:36:00,
2013-07-16 23:41:00,77.8,72.9,30.13,NW,318,0.0,0.0,85,0.00,,,0.00,0,LWC V2.00 B2112,2013-07-17 03:41:00,
2013-07-16 23:46:00,77.7,72.8,30.13,NW,318,0.0,0.0,85,0.00,,,0.00,0,LWC V2.00 B2112,2013-07-17 03:46:00,
2013-07-16 23:51:00,77.7,73.2,30.13,NW,318,0.0,0.0,86,0.00,,,0.00,0,LWC V2.00 B2112,2013-07-17 03:51:00,
2013-07-16 23:56:00,77.7,73.2,30.13,NW,318,0.0,0.0,86,0.00,,,0.00,0,LWC V2.00 B2112,2013-07-17 03:56:00,